Des Moines, IA

1:02 AM CST on February 14, 2016 (GMT -0600)
Des Moines International

Weather History for KDSM - April, 2013

Change the Weather History Date:

Tuesday, April 2, 2013

  Actual Average Record
Temperature  
Mean Temperature 36 °F 46 °F  
Max Temperature 49 °F 57 °F 87 °F (1981)
Min Temperature 22 °F 36 °F 15 °F (1970)
Degree Days  
Heating Degree Days 29 19  
Month to date heating degree days 61 38  
Since 1 July heating degree days 5390 5665  
Cooling Degree Days 0 0  
Month to date cooling degree days 0 0  
Year to date cooling degree days 0 1  
Moisture  
Dew Point 18 °F    
Average Humidity 53    
Maximum Humidity 81    
Minimum Humidity 24    
Precipitation  
Precipitation 0.00 in 0.10 in 0.75 in (2006)
Month to date precipitation 0.00 0.19  
Year to date precipitation 4.52 4.77  
Snow  
Snow 0.00 in 0.10 in 4.50 in (1975)
Month to date snowfall 0.0 0.2  
Since 1 July snowfall 48.3 33.7  
Snow Depth 0.00 in    
Sea Level Pressure  
Sea Level Pressure 30.34 in    
Wind  
Wind Speed 7 mph (NNW)    
Max Wind Speed 17 mph    
Max Gust Speed 23 mph    
Visibility 10 miles    
Events      
T = Trace of Precipitation, MM = Missing Value Source: NWS Daily Summary

Daily Weather History Graph

Daily Weather History Graph

Search for Another Location

Airport or City:

Trip Planner

Search our weather history database for the weather conditions in past years. The results will help you decide how hot, cold, wet, or windy it might be!

Date:

Astronomy

Apr. 02, 2013 Rise Set
Actual Time 6:55 AM CDT 7:41 PM CDT
Civil Twilight 6:27 AM CDT 8:09 PM CDT
Nautical Twilight 5:54 AM CDT 8:42 PM CDT
Astronomical Twilight 5:20 AM CDT 9:17 PM CDT
Moon 1:49 AM CDT (4/2) 11:44 AM CDT (4/2)
Length of Visible Light 13h 41m
Length of Day
12h 45m
Waning Gibbous, 55% of the Moon is Illuminated
Apr 2
Waning Gibbous
Apr 2
Last Quarter
Apr 10
New
Apr 18
First Quarter
Apr 25
Full

Hourly Weather History & Observations

Time (CDT) Temp. Windchill Dew Point Humidity Pressure Visibility Wind Dir Wind Speed Gust Speed Precip Events Conditions
12:54 AM 28.9 °F 25.2 °F 18.0 °F 64% 30.33 in 10.0 mi West 3.5 mph - N/A   Clear
1:54 AM 26.1 °F 21.9 °F 17.1 °F 69% 30.33 in 10.0 mi WNW 3.5 mph - N/A   Clear
2:54 AM 26.1 °F - 18.0 °F 71% 30.33 in 10.0 mi Calm Calm - N/A   Clear
3:54 AM 26.1 °F - 18.0 °F 71% 30.32 in 10.0 mi Calm Calm - N/A   Clear
4:54 AM 25.0 °F - 19.0 °F 78% 30.33 in 10.0 mi Calm Calm - N/A   Clear
5:54 AM 25.0 °F 20.7 °F 19.0 °F 78% 30.34 in 10.0 mi NW 3.5 mph - N/A   Clear
6:54 AM 23.0 °F 18.4 °F 17.1 °F 78% 30.36 in 10.0 mi West 3.5 mph - N/A   Clear
7:54 AM 25.0 °F - 19.0 °F 78% 30.37 in 10.0 mi Calm Calm - N/A   Clear
8:54 AM 30.9 °F 27.5 °F 21.0 °F 67% 30.37 in 10.0 mi WNW 3.5 mph - N/A   Clear
9:54 AM 36.0 °F 30.3 °F 18.0 °F 48% 30.37 in 10.0 mi West 6.9 mph - N/A   Clear
10:54 AM 39.0 °F 31.8 °F 18.0 °F 43% 30.38 in 10.0 mi WSW 11.5 mph - N/A   Partly Cloudy
11:54 AM 42.1 °F 37.7 °F 17.1 °F 37% 30.37 in 10.0 mi NNW 6.9 mph - N/A   Partly Cloudy
12:54 PM 46.0 °F 41.0 °F 15.1 °F 29% 30.35 in 10.0 mi North 10.4 mph - N/A   Partly Cloudy
1:54 PM 46.9 °F - 15.1 °F 28% 30.33 in 10.0 mi NW 12.7 mph 20.7 mph N/A   Partly Cloudy
2:54 PM 48.0 °F - 14.0 °F 26% 30.32 in 10.0 mi North 10.4 mph - N/A   Partly Cloudy
3:54 PM 48.0 °F - 15.1 °F 27% 30.32 in 10.0 mi North 11.5 mph - N/A   Partly Cloudy
4:54 PM 46.9 °F - 17.1 °F 30% 30.32 in 10.0 mi North 11.5 mph 17.3 mph N/A   Partly Cloudy
5:54 PM 46.9 °F - 19.0 °F 33% 30.32 in 10.0 mi North 10.4 mph - N/A   Partly Cloudy
6:54 PM 44.1 °F 38.6 °F 19.9 °F 38% 30.33 in 10.0 mi North 10.4 mph - N/A   Partly Cloudy
7:54 PM 41.0 °F 33.9 °F 21.0 °F 45% 30.34 in 10.0 mi NE 12.7 mph - N/A   Partly Cloudy
8:54 PM 37.9 °F 30.9 °F 21.9 °F 53% 30.35 in 10.0 mi NE 10.4 mph - N/A   Clear
9:54 PM 37.0 °F 31.6 °F 21.9 °F 54% 30.36 in 10.0 mi ENE 6.9 mph - N/A   Clear
10:54 PM 35.1 °F 30.1 °F 21.9 °F 59% 30.37 in 10.0 mi East 5.8 mph - N/A   Clear
11:54 PM 34.0 °F 28.8 °F 21.0 °F 59% 30.37 in 10.0 mi East 5.8 mph - N/A   Clear